STARLINK-1882, 46784

Orbit data source: Space-Track

STARLINK-1882, 46784 is a payload satellite owned by SpaceX/Seattle (US) in LEO that was launched on Sat, 24 Oct 2020 UTC via an FALCON 9 launch vehicle from the Air Force Eastern Test Range (AFETR). Payload-class satellites include a variety of spacecraft equipped with specific instruments for various scientific and technological missions. These include communications satellites like Starlink; space stations such as the ISS; scientific satellites like the Hubble; Earth observation satellites from companies like Planet Labs, Umbra, and HawkEye 360; GPS; miniature CubeSats for education and research; and military/defense satellites.

Loading next visibility...
Identifier
46784, 2020-074AX
Orbit
LEO
Country
Flag of USUS
Related business
Manufacturer
SpaceX/Seattle
Mission
Partially operational Commercial Communications
Bus & Motor
STARLINK, Unknown motor
Mass
260 kg wet, ~248 kg dry
Launch date (UTC)
2020-10-24 (6 years ago)
Launch vehicle
FALCON 9
Launch site
Air Force Eastern Test Range (AFETR)
Object type
Payload
Rocket body
Debris
Shape & HBR
Box + 1 Pan, 10.1 m
Radar Cross Section
13.562 m², Large (>1 m²)

Expand to show TLE details & history
Last TLE update: 3 hours ago

TLE from 3 hours ago
0 STARLINK-1882
1 46784U 20074AX  26127.91668980  .00019598  00000-0  13153-3 0  9995
2 46784  53.0478 342.5810 0000722 239.8581 328.8352 15.75269316  5975
Epoch: 2026-05-07T22:00Z
TLE epoch observation values (Epoch: 2026-05-07T22:00:01.998Z)
Latitude
-22.75284°
Longitude
-14.90008°
Altitude
349.925 km
Speed
7.699 km/s
True Right ascension
12h 03m 27s
True Declination
-22° 37' 23"
Sunlit
Object was in full shadow at epoch
Visualization orbit readout
Latitude
Unknown
Longitude
Unknown
Altitude
Unknown
Speed
Unknown
Apparent Right ascension
Unknown
Apparent Declination
Unknown
Sunlit
N/A
Visualization observer readout
Local Sidereal Time
09:10:36
Azimuth
Unknown
Elevation
Unknown
Doppler factor
Unknown
Orbital elements
Apogee altitude
344.63 km
Perigee altitude
343.659 km
Semi-major axis
6,722.282 km
Eccentricity
0.00007
Inclination
53.0478°
RAAN
342.581°
Arg. of periapsis
239.8581°
True anomaly
328.83092°
Mean anomaly
328.8352°
Eccentric anomaly
328.83306°
Mean motion
3.93793 °/min
Orbital period
91.42 mins
BSTAR
0.00013153
Loading maneuver chart data...
Computing Atmospheric mass density...

Documentation

Showing up to 5 results
|